{"data":{"norad_id":67397,"intl_designator":"2026-004AL","name":"CARBSAR","alt_names":[],"object_type":"PAYLOAD","status":"ACTIVE","operator":null,"country":"UK","launch_date":"2026-01-11","launch_site_code":"AFWTR","launch_vehicle":null,"mission":null,"orbit_class":"UNKNOWN","rcs_meters":null,"size_class":null,"mass_kg":null,"dimensions":null,"purposes":[],"wikipedia_slug":null,"has_3d_model":false,"image_url":null,"decayed_at":null,"tle_current":{"epoch":"2026-05-24T23:52:44.442048Z","epoch_age_seconds":89626,"freshness":"FRESH","line1":"1 67397U 26004AL  26144.99495882  .00005650  00000+0  27097-3 0  9998","line2":"2 67397  97.4541 144.4581 0007442  67.3076 292.8944 15.19269181 20246","mean_motion":15.19269181,"eccentricity":0.0007442,"inclination_deg":97.4541,"raan_deg":144.4581,"arg_perigee_deg":67.3076,"mean_anomaly_deg":292.8944,"bstar":0.00027097,"rev_number":2024,"period_min":94.78241367683,"perigee_km":502.92335264964,"apogee_km":513.17275048039,"semimajor_km":6886.185051565,"source":"CELESTRAK","updated_at":"2026-05-25T13:38:06.961375Z"}}}